Miscellaneous Local Product
Issued by NWS Hastings, NE

Home | Current Version | Previous Version | Text Only | Print | Product List | Glossary Off
Versions: 1 2 3 4 5 6 7 8 9 10 11 12 13 14 15 16 17 18 19 20 21 22 23 24 25 26 27 28 29 30 31 32 33 34 35 36 37 38 39 40 41 42 43 44 45 46 47 48 49 50

000
AXUS43 KGID 300202
MISGRI

GID CWA HOURLY WEATHER ROUNDUP
NATIONAL WEATHER SERVICE HASTINGS NE
800 PM CST THU JAN 29 2015

NOTE: "FAIR" INDICATES FEW OR NO CLOUDS BELOW 12,000 FEET WITH NO
SIGNIFICANT WEATHER AND/OR OBSTRUCTIONS TO VISIBILITY.

...SOUTH CENTRAL NEBRASKA...

CITY           SKY/WX    TMP DP  RH WIND       PRES   REMARKS
GRAND ISLAND   CLEAR     28  18  66 CALM      30.50S
HASTINGS       FAIR      31  18  58 W3        30.50R
KEARNEY        CLEAR     34  19  55 NW3       30.50S
ORD            CLEAR     26  18  71 CALM      30.48S
YORK           CLEAR     27  23  86 N3        30.50R
AURORA         CLEAR     28  19  69 N5        30.49S WCI  23
LEXINGTON      CLEAR     30  19  64 CALM      30.49R
HOLDREGE       CLEAR     29  18  63 CALM      30.49S
HEBRON         CLEAR     29  20  68 CALM      30.51R

...NEBRASKA PANHANDLE...

CITY           SKY/WX    TMP DP  RH WIND       PRES   REMARKS
CHADRON        CLEAR     30  19  63 SE3       30.38F
ALLIANCE       CLEAR     23  15  71 SE8       30.40F WCI  14
SCOTTSBLUFF    CLEAR     30  23  75 E8        30.40S WCI  22
SIDNEY         CLEAR     29  16  58 SE7       30.42S WCI  22

...WESTERN AND NORTH CENTRAL NEBRASKA...

CITY           SKY/WX    TMP DP  RH WIND       PRES   REMARKS
VALENTINE      CLEAR     28  18  66 S3        30.45S
AINSWORTH      CLEAR     28  20  72 CALM      30.45S
ONEILL         CLEAR     30  23  75 NE3       30.49R
BROKEN BOW     CLEAR     25  17  72 CALM      30.48R
IMPERIAL         N/A     29  18  63 CALM      30.46F
NORTH PLATTE   PTCLDY    24  15  68 CALM      30.47S
MCCOOK         PTCLDY    29  18  63 CALM      30.48S

...EASTERN NEBRASKA...

CITY           SKY/WX    TMP DP  RH WIND       PRES   REMARKS
NORFOLK        CLEAR     27  21  78 N6        30.51R WCI  20
SO SIOUX CITY  CLOUDY    31  22  69 N15       30.52R WCI  20
TEKAMAH        MOCLDY    32  22  66 N13       30.53R WCI  22
COLUMBUS       CLEAR     27  18  69 N6        30.52R WCI  20
ALBION         FAIR      26  20  79 CALM      30.51R
OMAHA EPPLEY   CLEAR     31  23  72 N13       30.52R WCI  21
OFFUTT AFB     CLEAR     31  24  72 N3        30.51R
MILLARD        CLEAR     33  24  69 N7        30.51R WCI  27
LINCOLN        CLEAR     25  20  81 N9        30.52S WCI  15
NEBRASKA CITY  CLEAR     30  20  66 NW7       30.50S WCI  23
BEATRICE       CLEAR     28  22  77 NE5       30.50S WCI  23
FALLS CITY     CLEAR     28  20  71 W5        30.50S WCI  23

...NORTHERN KANSAS...

CITY           SKY/WX    TMP DP  RH WIND       PRES   REMARKS
GOODLAND       PTCLDY    30  20  66 SE7       30.46F WCI  23
HILL CITY      MOCLDY    26  17  68 N6        30.51R WCI  19
NORTON         CLEAR     28  18  64 N5        30.48F WCI  23
PHILLIPSBURG   CLEAR     30  21  69 NW5       30.51S WCI  25
SMITH CENTER   CLEAR     34  19  55 N6        30.51S WCI  29
BELOIT         CLEAR     27  19  74 N5        30.51S WCI  21
HAYS           PTCLDY    34  16  47 CALM      30.51R
RUSSELL        PTCLDY    37  24  59 VRB3      30.49S
CONCORDIA      CLEAR     35  23  61 NW7       30.51R WCI  29
SALINA         CLEAR     36  23  59 NW3       30.51S
TOPEKA         CLEAR     33  25  72 CALM      30.52R



USA.gov is the U.S. government's official web portal to all federal, state and local government web resources and services.